| time (UTC) | temp F | wind direction | speed MPH | gust MPH | rain 1hr in | rain 24hr in | rain mn in | humidity % | barometer mb |
| 20260906083102 | 80 | 0 | 0.0 | 0.0 | 0.00 | 0.01 | 0.00 | 88 | 1012.8 |
| 20260906081603 | 81 | 0 | 0.0 | 0.0 | 0.00 | 0.01 | 0.00 | 88 | 1012.8 |
| 20260906080105 | 81 | 0 | 0.0 | 0.0 | 0.00 | 0.01 | 0.00 | 87 | 1013.0 |
| 20260906074601 | 81 | 0 | 0.0 | 0.0 | 0.00 | 0.01 | 0.00 | 86 | 1013.0 |
| 20260906073100 | 81 | 0 | 0.0 | 0.0 | 0.00 | 0.01 | 0.00 | 86 | 1013.1 |
| 20260906071610 | 81 | 0 | 0.0 | 0.0 | 0.00 | 0.01 | 0.00 | 86 | 1013.2 |
| 20260906070105 | 82 | 0 | 0.0 | 0.0 | 0.00 | 0.01 | 0.00 | 85 | 1013.3 |
| 20260906064604 | 82 | 0 | 0.0 | 1.0 | 0.00 | 0.01 | 0.00 | 85 | 1013.4 |
| 20260906063104 | 82 | 0 | 0.0 | 1.0 | 0.00 | 0.01 | 0.00 | 85 | 1013.5 |
| 20260906061606 | 82 | 167 | 0.0 | 0.0 | 0.00 | 0.01 | 0.00 | 85 | 1013.3 |
| 20260906060104 | 82 | 0 | 0.0 | 2.0 | 0.00 | 0.01 | 0.00 | 84 | 1013.4 |
| 20260906054601 | 82 | 0 | 0.0 | 1.0 | 0.00 | 0.01 | 0.00 | 84 | 1013.3 |
| 20260906053102 | 82 | 167 | 0.0 | 1.0 | 0.00 | 0.01 | 0.00 | 83 | 1013.4 |
| 20260906051605 | 82 | 0 | 0.0 | 2.0 | 0.00 | 0.01 | 0.00 | 83 | 1013.5 |
| 20260906050132 | 82 | 0 | 0.0 | 1.0 | 0.00 | 0.01 | 0.00 | 83 | 1013.6 |
| 20260906044603 | 83 | 0 | 0.0 | 3.0 | 0.00 | 0.01 | 0.01 | 82 | 1013.6 |
| 20260906043110 | 83 | 167 | 0.0 | 3.0 | 0.00 | 0.01 | 0.01 | 82 | 1013.5 |
| 20260906041603 | 83 | 167 | 0.0 | 2.0 | 0.00 | 0.01 | 0.01 | 82 | 1013.5 |
| 20260906040107 | 83 | 167 | 0.0 | 1.0 | 0.00 | 0.01 | 0.01 | 81 | 1013.8 |
| 20260906034601 | 83 | 0 | 0.0 | 1.0 | 0.00 | 0.01 | 0.01 | 81 | 1013.8 |
| 20260906033106 | 83 | 167 | 0.0 | 1.0 | 0.00 | 0.01 | 0.01 | 80 | 1013.6 |
| 20260906031601 | 83 | 167 | 0.0 | 1.0 | 0.00 | 0.01 | 0.01 | 79 | 1013.6 |
| 20260906030133 | 84 | 0 | 0.0 | 1.0 | 0.00 | 0.01 | 0.01 | 78 | 1013.5 |
| 20260906024604 | 84 | 167 | 0.0 | 2.0 | 0.00 | 0.01 | 0.01 | 78 | 1013.3 |
| 20260906023126 | 84 | 167 | 0.0 | 2.0 | 0.00 | 0.01 | 0.01 | 77 | 1013.0 |
| 20260906021614 | 84 | 0 | 1.0 | 3.0 | 0.00 | 0.01 | 0.01 | 77 | 1012.9 |
| 20260906020107 | 84 | 0 | 0.0 | 0.0 | 0.00 | 0.01 | 0.01 | 78 | 1012.6 |
| 20260906014628 | 84 | 0 | 0.0 | 1.0 | 0.00 | 0.01 | 0.01 | 81 | 1012.5 |
| 20260906013104 | 84 | 0 | 0.0 | 1.0 | 0.00 | 0.01 | 0.01 | 81 | 1012.5 |
| 20260906011607 | 84 | 166 | 0.0 | 2.0 | 0.00 | 0.01 | 0.01 | 81 | 1012.3 |
| 20260906010105 | 85 | 167 | 0.0 | 0.0 | 0.00 | 0.01 | 0.01 | 81 | 1012.4 |
| 20260906004606 | 86 | 0 | 0.0 | 0.0 | 0.00 | 0.01 | 0.01 | 76 | 1012.2 |
| 20260906003109 | 86 | 0 | 0.0 | 0.0 | 0.00 | 0.01 | 0.01 | 72 | 1012.3 |
| 20260906001603 | 87 | 0 | 0.0 | 2.0 | 0.00 | 0.01 | 0.01 | 71 | 1012.4 |
| 20260906000106 | 87 | 0 | 0.0 | 3.0 | 0.00 | 0.01 | 0.01 | 72 | 1012.4 |
| 20260905234615 | 87 | 0 | 0.0 | 3.0 | 0.00 | 0.01 | 0.01 | 72 | 1012.6 |
| 20260905233103 | 87 | 167 | 0.0 | 2.0 | 0.00 | 0.01 | 0.01 | 73 | 1012.8 |
| 20260905231603 | 86 | 0 | 0.0 | 1.0 | 0.00 | 0.01 | 0.01 | 77 | 1012.6 |
| 20260905230108 | 86 | 0 | 0.0 | 0.0 | 0.00 | 0.01 | 0.01 | 78 | 1012.6 |
| 20260905224610 | 85 | 0 | 0.0 | 0.0 | 0.00 | 0.01 | 0.01 | 77 | 1012.3 |
| 20260905223101 | 84 | 0 | 0.0 | 2.0 | 0.00 | 0.01 | 0.01 | 79 | 1012.2 |
| 20260905221603 | 83 | 0 | 0.0 | 0.0 | 0.01 | 0.01 | 0.01 | 81 | 1012.3 |
| 20260905220107 | 83 | 0 | 0.0 | 0.0 | 0.01 | 0.01 | 0.01 | 83 | 1012.4 |
| 20260905214609 | 82 | 167 | 1.0 | 2.0 | 0.01 | 0.01 | 0.01 | 82 | 1012.4 |
| 20260905213114 | 83 | 167 | 0.0 | 3.0 | 0.01 | 0.01 | 0.01 | 78 | 1012.6 |
| 20260905211603 | 86 | 167 | 3.0 | 6.0 | 0.00 | 0.00 | 0.00 | 69 | 1013.2 |
| 20260905210108 | 88 | 167 | 2.0 | 6.0 | 0.00 | 0.00 | 0.00 | 68 | 1013.0 |
| 20260905204607 | 91 | 166 | 3.0 | 9.0 | 0.00 | 0.00 | 0.00 | 64 | 1012.6 |
| 20260905203110 | 92 | 168 | 3.0 | 7.0 | 0.00 | 0.00 | 0.00 | 61 | 1012.7 |
| 20260905201607 | 92 | 167 | 3.0 | 7.0 | 0.00 | 0.00 | 0.00 | 59 | 1012.9 |
| 20260905194605 | 98 | 165 | 2.0 | 7.0 | 0.00 | 0.00 | 0.00 | 50 | 1013.1 |
| 20260905193104 | 98 | 165 | 3.0 | 6.0 | 0.00 | 0.00 | 0.00 | 50 | 1013.1 |
| 20260905191614 | 97 | 165 | 2.0 | 6.0 | 0.00 | 0.00 | 0.00 | 48 | 1013.2 |
| 20260905190105 | 96 | 165 | 1.0 | 6.0 | 0.00 | 0.00 | 0.00 | 50 | 1013.3 |
| 20260905184618 | 96 | 165 | 1.0 | 2.0 | 0.00 | 0.01 | 0.00 | 51 | 1013.5 |
| 20260905183104 | 95 | 165 | 2.0 | 5.0 | 0.00 | 0.01 | 0.00 | 51 | 1013.7 |
| 20260905181603 | 94 | 165 | 3.0 | 6.0 | 0.00 | 0.01 | 0.00 | 52 | 1014.0 |
| 20260905180108 | 95 | 165 | 1.0 | 3.0 | 0.00 | 0.01 | 0.00 | 52 | 1014.4 |
| 20260905174619 | 94 | 165 | 2.0 | 3.0 | 0.00 | 0.01 | 0.00 | 55 | 1014.6 |
| 20260905173112 | 94 | 165 | 1.0 | 3.0 | 0.00 | 0.01 | 0.00 | 56 | 1014.9 |
| 20260905171602 | 94 | 165 | 1.0 | 3.0 | 0.00 | 0.01 | 0.00 | 57 | 1014.9 |
| 20260905170106 | 94 | 165 | 1.0 | 4.0 | 0.00 | 0.01 | 0.00 | 59 | 1015.0 |
| 20260905164604 | 92 | 165 | 1.0 | 3.0 | 0.00 | 0.03 | 0.00 | 57 | 1015.3 |
| 20260905163108 | 90 | 0 | 1.0 | 3.0 | 0.00 | 0.03 | 0.00 | 60 | 1015.4 |
| 20260905161601 | 89 | 0 | 0.0 | 2.0 | 0.00 | 0.03 | 0.00 | 68 | 1015.4 |
| 20260905160105 | 87 | 165 | 0.0 | 0.0 | 0.00 | 0.03 | 0.00 | 70 | 1015.3 |
| 20260905154606 | 88 | 0 | 0.0 | 1.0 | 0.00 | 0.03 | 0.00 | 70 | 1015.4 |
| 20260905153111 | 87 | 0 | 0.0 | 1.0 | 0.00 | 0.03 | 0.00 | 74 | 1015.3 |
| 20260905151608 | 86 | 165 | 0.0 | 1.0 | 0.00 | 0.03 | 0.00 | 75 | 1015.4 |
| 20260905150104 | 85 | 0 | 0.0 | 1.0 | 0.00 | 0.03 | 0.00 | 78 | 1015.5 |
| 20260905144606 | 84 | 0 | 0.0 | 0.0 | 0.00 | 0.03 | 0.00 | 81 | 1015.3 |
| 20260905143108 | 84 | 0 | 0.0 | 0.0 | 0.00 | 0.03 | 0.00 | 84 | 1015.4 |
| 20260905141614 | 83 | 0 | 0.0 | 0.0 | 0.00 | 0.03 | 0.00 | 86 | 1015.4 |
| 20260905140107 | 83 | 0 | 0.0 | 0.0 | 0.00 | 0.03 | 0.00 | 87 | 1015.3 |
| 20260905134612 | 82 | 0 | 0.0 | 0.0 | 0.00 | 0.03 | 0.00 | 89 | 1015.1 |
| 20260905133106 | 81 | 0 | 0.0 | 0.0 | 0.00 | 0.03 | 0.00 | 91 | 1015.2 |
| 20260905131608 | 80 | 0 | 0.0 | 0.0 | 0.00 | 0.03 | 0.00 | 93 | 1015.1 |
| 20260905130104 | 79 | 0 | 0.0 | 0.0 | 0.00 | 0.03 | 0.00 | 94 | 1014.9 |
| 20260905124603 | 78 | 0 | 0.0 | 0.0 | 0.00 | 0.03 | 0.00 | 94 | 1014.9 |
| 20260905123103 | 77 | 0 | 0.0 | 0.0 | 0.00 | 0.03 | 0.00 | 94 | 1014.5 |
| 20260905121603 | 77 | 0 | 0.0 | 0.0 | 0.00 | 0.03 | 0.00 | 94 | 1014.6 |
| 20260905114633 | 77 | 0 | 0.0 | 0.0 | 0.00 | 0.03 | 0.00 | 94 | 1014.2 |
| 20260905113108 | 77 | 0 | 0.0 | 0.0 | 0.00 | 0.03 | 0.00 | 94 | 1013.9 |
| 20260905111601 | 77 | 0 | 0.0 | 0.0 | 0.00 | 0.03 | 0.00 | 94 | 1013.8 |
| 20260905110100 | 77 | 0 | 0.0 | 0.0 | 0.00 | 0.03 | 0.00 | 94 | 1013.7 |
| 20260905104605 | 77 | 0 | 0.0 | 0.0 | 0.00 | 0.03 | 0.00 | 94 | 1013.7 |
| 20260905103102 | 77 | 0 | 0.0 | 0.0 | 0.00 | 0.03 | 0.00 | 94 | 1013.6 |
| 20260905101605 | 77 | 0 | 0.0 | 0.0 | 0.00 | 0.03 | 0.00 | 93 | 1013.7 |
| 20260905100115 | 77 | 0 | 0.0 | 0.0 | 0.00 | 0.03 | 0.00 | 93 | 1013.6 |
| 20260905094622 | 77 | 0 | 0.0 | 0.0 | 0.00 | 0.03 | 0.00 | 93 | 1013.6 |
| 20260905093103 | 77 | 0 | 0.0 | 0.0 | 0.00 | 0.03 | 0.00 | 93 | 1013.6 |
| 20260905091615 | 77 | 0 | 0.0 | 0.0 | 0.00 | 0.03 | 0.00 | 93 | 1013.7 |
| 20260905090104 | 78 | 0 | 0.0 | 0.0 | 0.00 | 0.03 | 0.00 | 92 | 1013.5 |
| 20260905084604 | 78 | 0 | 0.0 | 0.0 | 0.00 | 0.03 | 0.00 | 92 | 1013.5 |